| time (UTC) | temp F | wind direction | speed MPH | gust MPH | rain 1hr in | rain 24hr in | rain mn in | humidity % | barometer mb |
| 20260903000016 | 100 | 249 | 7.0 | 11.0 | 0.01 | 1.73 | 1.73 | 31 | 965.3 |
| 20260902234515 | 101 | 292 | 0.0 | 0.0 | 0.03 | 1.76 | 1.73 | 30 | 965.4 |
| 20260902233026 | 101 | 292 | 6.0 | 13.0 | 0.04 | 1.76 | 1.73 | 30 | 965.6 |
| 20260902231517 | 100 | 259 | 2.0 | 11.0 | 0.04 | 1.76 | 1.73 | 31 | 965.8 |
| 20260902230012 | 101 | 242 | 0.0 | 8.0 | 0.12 | 1.75 | 1.72 | 30 | 965.9 |
| 20260902224511 | 101 | 335 | 0.0 | 11.0 | 0.09 | 1.81 | 1.69 | 30 | 966.0 |
| 20260902223008 | 100 | 265 | 4.0 | 14.0 | 0.12 | 1.81 | 1.69 | 31 | 966.4 |
| 20260902221506 | 100 | 192 | 0.0 | 17.0 | 0.14 | 1.81 | 1.69 | 31 | 966.4 |
| 20260902220006 | 100 | 240 | 4.0 | 12.0 | 0.11 | 1.75 | 1.60 | 31 | 966.6 |
| 20260902214504 | 100 | 244 | 5.0 | 14.0 | 0.26 | 1.75 | 1.60 | 31 | 966.8 |
| 20260902213104 | 99 | 244 | 0.0 | 15.0 | 0.30 | 1.72 | 1.57 | 32 | 967.0 |
| 20260902211610 | 99 | 176 | 0.0 | 11.0 | 0.35 | 1.70 | 1.55 | 33 | 967.2 |
| 20260902210059 | 99 | 130 | 2.0 | 13.0 | 0.49 | 1.64 | 1.49 | 34 | 967.4 |
| 20260902204553 | 98 | 173 | 2.0 | 10.0 | 0.43 | 1.49 | 1.34 | 35 | 967.7 |
| 20260902203052 | 97 | 210 | 6.0 | 14.0 | 0.48 | 1.42 | 1.27 | 35 | 968.0 |
| 20260902201611 | 97 | 234 | 7.0 | 14.0 | 0.44 | 1.35 | 1.20 | 35 | 968.2 |
| 20260902200052 | 98 | 153 | 2.0 | 13.0 | 0.28 | 1.14 | 1.00 | 36 | 968.4 |
| 20260902194546 | 98 | 184 | 5.0 | 13.0 | 0.33 | 1.06 | 0.88 | 35 | 968.7 |
| 20260902193043 | 96 | 183 | 2.0 | 10.0 | 0.28 | 0.97 | 0.79 | 36 | 968.8 |
| 20260902191548 | 97 | 192 | 4.0 | 16.0 | 0.28 | 0.94 | 0.76 | 35 | 969.1 |
| 20260902190042 | 96 | 183 | 4.0 | 17.0 | 0.39 | 0.89 | 0.71 | 36 | 969.3 |
| 20260902184540 | 95 | 199 | 3.0 | 12.0 | 0.32 | 0.74 | 0.53 | 38 | 969.4 |
| 20260902183046 | 95 | 144 | 0.0 | 8.0 | 0.31 | 0.71 | 0.50 | 39 | 969.6 |
| 20260902181536 | 94 | 169 | 2.0 | 14.0 | 0.38 | 0.69 | 0.48 | 40 | 969.8 |
| 20260902180035 | 94 | 140 | 1.0 | 12.0 | 0.28 | 0.52 | 0.31 | 42 | 969.9 |
| 20260902174534 | 94 | 147 | 0.0 | 9.0 | 0.19 | 0.43 | 0.21 | 41 | 970.0 |
| 20260902173032 | 94 | 184 | 1.0 | 13.0 | 0.19 | 0.41 | 0.19 | 41 | 970.1 |
| 20260902171530 | 93 | 214 | 3.0 | 13.0 | 0.10 | 0.32 | 0.10 | 41 | 970.1 |
| 20260902170027 | 92 | 138 | 0.0 | 8.0 | 0.02 | 0.24 | 0.02 | 46 | 970.1 |
| 20260902164524 | 91 | 157 | 0.0 | 6.0 | 0.02 | 0.24 | 0.02 | 48 | 970.1 |
| 20260902163022 | 90 | 138 | 0.0 | 7.0 | 0.00 | 0.22 | 0.00 | 51 | 970.2 |
| 20260902161522 | 90 | 118 | 1.0 | 8.0 | 0.00 | 0.22 | 0.00 | 53 | 970.2 |
| 20260902160019 | 90 | 173 | 0.0 | 10.0 | 0.00 | 0.22 | 0.00 | 55 | 970.1 |
| 20260902154520 | 89 | 156 | 0.0 | 6.0 | 0.00 | 0.22 | 0.00 | 56 | 970.1 |
| 20260902153018 | 88 | 113 | 0.0 | 0.0 | 0.00 | 0.22 | 0.00 | 57 | 970.0 |
| 20260902151516 | 87 | 78 | 0.0 | 0.0 | 0.00 | 0.22 | 0.00 | 59 | 969.9 |
| 20260902150015 | 86 | 78 | 0.0 | 0.0 | 0.00 | 0.22 | 0.00 | 60 | 969.9 |
| 20260902144514 | 85 | 78 | 0.0 | 0.0 | 0.00 | 0.22 | 0.00 | 62 | 970.0 |
| 20260902143015 | 85 | 78 | 0.0 | 0.0 | 0.00 | 0.22 | 0.00 | 62 | 969.9 |
| 20260902141521 | 84 | 78 | 0.0 | 0.0 | 0.00 | 0.22 | 0.00 | 63 | 969.7 |
| 20260902140016 | 83 | 78 | 0.0 | 0.0 | 0.00 | 0.22 | 0.00 | 64 | 969.5 |
| 20260902134510 | 83 | 76 | 0.0 | 0.0 | 0.00 | 0.22 | 0.00 | 64 | 969.3 |
| 20260902133007 | 82 | 75 | 0.0 | 0.0 | 0.00 | 0.22 | 0.00 | 64 | 969.0 |
| 20260902131506 | 82 | 76 | 0.0 | 0.0 | 0.00 | 0.22 | 0.00 | 64 | 968.9 |
| 20260902130007 | 82 | 76 | 0.0 | 0.0 | 0.00 | 0.22 | 0.00 | 64 | 968.9 |
| 20260902124508 | 83 | 75 | 0.0 | 0.0 | 0.00 | 0.22 | 0.00 | 63 | 968.7 |
| 20260902123101 | 83 | 74 | 0.0 | 0.0 | 0.00 | 0.22 | 0.00 | 62 | 968.6 |
| 20260902121604 | 84 | 74 | 0.0 | 0.0 | 0.00 | 0.22 | 0.00 | 62 | 968.4 |
| 20260902120057 | 84 | 169 | 0.0 | 0.0 | 0.00 | 0.22 | 0.00 | 61 | 968.3 |
| 20260902114556 | 84 | 169 | 0.0 | 0.0 | 0.00 | 0.22 | 0.00 | 61 | 968.3 |
| 20260902113056 | 84 | 169 | 0.0 | 0.0 | 0.00 | 0.22 | 0.00 | 60 | 968.4 |
| 20260902111557 | 84 | 170 | 0.0 | 0.0 | 0.00 | 0.22 | 0.00 | 60 | 968.3 |
| 20260902110050 | 85 | 170 | 0.0 | 0.0 | 0.00 | 0.22 | 0.00 | 59 | 968.2 |
| 20260902104551 | 85 | 170 | 0.0 | 0.0 | 0.00 | 0.22 | 0.00 | 59 | 968.2 |
| 20260902103052 | 85 | 170 | 0.0 | 0.0 | 0.00 | 0.22 | 0.00 | 59 | 968.3 |
| 20260902101555 | 86 | 170 | 0.0 | 0.0 | 0.00 | 0.22 | 0.00 | 59 | 968.2 |
| 20260902100047 | 86 | 170 | 0.0 | 0.0 | 0.00 | 0.22 | 0.00 | 59 | 968.2 |
| 20260902094545 | 86 | 170 | 0.0 | 0.0 | 0.00 | 0.22 | 0.00 | 59 | 968.1 |
| 20260902093057 | 87 | 170 | 0.0 | 0.0 | 0.00 | 0.22 | 0.00 | 58 | 968.1 |
| 20260902091551 | 87 | 170 | 0.0 | 0.0 | 0.00 | 0.22 | 0.00 | 57 | 968.2 |
| 20260902090048 | 87 | 170 | 0.0 | 0.0 | 0.00 | 0.22 | 0.00 | 56 | 968.1 |
| 20260902084552 | 88 | 169 | 0.0 | 0.0 | 0.00 | 0.22 | 0.00 | 55 | 968.2 |
| 20260902083048 | 88 | 170 | 0.0 | 0.0 | 0.00 | 0.22 | 0.00 | 55 | 968.3 |
| 20260902081540 | 88 | 169 | 0.0 | 0.0 | 0.00 | 0.22 | 0.00 | 55 | 968.3 |
| 20260902080135 | 88 | 170 | 0.0 | 0.0 | 0.00 | 0.22 | 0.00 | 54 | 968.3 |
| 20260902074533 | 89 | 169 | 0.0 | 0.0 | 0.00 | 0.22 | 0.00 | 53 | 968.2 |
| 20260902073029 | 90 | 170 | 0.0 | 0.0 | 0.00 | 0.22 | 0.00 | 51 | 968.0 |
| 20260902071535 | 90 | 169 | 0.0 | 0.0 | 0.00 | 0.22 | 0.00 | 51 | 967.9 |
| 20260902070024 | 90 | 169 | 0.0 | 0.0 | 0.00 | 0.22 | 0.00 | 49 | 967.8 |
| 20260902064525 | 90 | 169 | 0.0 | 0.0 | 0.00 | 0.22 | 0.22 | 49 | 967.7 |
| 20260902063029 | 91 | 169 | 0.0 | 0.0 | 0.00 | 0.22 | 0.22 | 48 | 967.7 |
| 20260902061539 | 91 | 170 | 0.0 | 0.0 | 0.00 | 0.22 | 0.22 | 48 | 967.8 |
| 20260902060024 | 91 | 170 | 0.0 | 0.0 | 0.00 | 0.22 | 0.22 | 47 | 967.8 |
| 20260902054522 | 91 | 170 | 0.0 | 0.0 | 0.00 | 0.22 | 0.22 | 45 | 967.9 |
| 20260902053021 | 92 | 170 | 0.0 | 0.0 | 0.00 | 0.22 | 0.22 | 44 | 967.8 |
| 20260902051522 | 92 | 169 | 0.0 | 0.0 | 0.00 | 0.22 | 0.22 | 41 | 967.7 |
| 20260902050022 | 93 | 169 | 0.0 | 0.0 | 0.00 | 0.22 | 0.22 | 41 | 967.7 |
| 20260902044521 | 93 | 170 | 0.0 | 0.0 | 0.00 | 0.22 | 0.22 | 40 | 967.6 |
| 20260902043020 | 93 | 170 | 0.0 | 0.0 | 0.00 | 0.22 | 0.22 | 40 | 967.5 |
| 20260902041520 | 94 | 170 | 0.0 | 0.0 | 0.00 | 0.22 | 0.22 | 40 | 967.5 |
| 20260902040020 | 94 | 170 | 0.0 | 0.0 | 0.00 | 0.22 | 0.22 | 40 | 967.3 |
| 20260902034520 | 94 | 170 | 0.0 | 0.0 | 0.00 | 0.22 | 0.22 | 39 | 967.2 |
| 20260902033019 | 94 | 170 | 0.0 | 0.0 | 0.00 | 0.22 | 0.22 | 38 | 966.9 |
| 20260902031518 | 95 | 169 | 0.0 | 0.0 | 0.00 | 0.22 | 0.22 | 38 | 966.6 |
| 20260902030018 | 94 | 170 | 0.0 | 0.0 | 0.00 | 0.22 | 0.22 | 39 | 966.3 |
| 20260902024521 | 95 | 170 | 0.0 | 0.0 | 0.00 | 0.22 | 0.22 | 39 | 966.3 |
| 20260902023017 | 94 | 170 | 0.0 | 0.0 | 0.00 | 0.22 | 0.22 | 39 | 966.1 |
| 20260902021517 | 95 | 170 | 0.0 | 0.0 | 0.00 | 0.22 | 0.22 | 39 | 966.0 |
| 20260902020021 | 95 | 170 | 0.0 | 0.0 | 0.00 | 0.22 | 0.22 | 38 | 965.9 |
| 20260902014517 | 95 | 169 | 0.0 | 0.0 | 0.00 | 0.22 | 0.22 | 39 | 965.8 |
| 20260902013014 | 96 | 169 | 0.0 | 0.0 | 0.00 | 0.22 | 0.22 | 37 | 965.8 |
| 20260902011513 | 96 | 169 | 0.0 | 0.0 | 0.00 | 0.22 | 0.22 | 37 | 965.9 |
| 20260902010017 | 97 | 169 | 0.0 | 0.0 | 0.00 | 0.22 | 0.22 | 38 | 966.1 |
| 20260902004511 | 97 | 170 | 0.0 | 0.0 | 0.00 | 0.22 | 0.22 | 36 | 966.2 |
| 20260902003008 | 97 | 160 | 0.0 | 0.0 | 0.00 | 0.22 | 0.22 | 39 | 966.3 |
| 20260902001507 | 97 | 161 | 0.0 | 0.0 | 0.00 | 0.22 | 0.22 | 38 | 966.4 |